SL-16 DEB, 28437

Orbit data source: Space-Track

SL-16 DEB, 28437 is space debris in SSO originally from a launch on Mon, 10 Dec 2001 UTC launched from the Tyuratam Missile And Space Complex (TTMTR). Debris objects in space refer to the collection of defunct objects orbiting the Earth. Examples of debris include non-operational satellites, rocket bodies, and fragments generated from explosions, collisions, or faulty payload assembly.

Loading next visibility...
Identifier
28437, 2001-056L
Orbit
SSO
Country
Flag of CISCIS
Related business
Manufacturer
Yuzhnoe
Mission
Spacecraft
Bus & Motor
SEP MOTOR COVER, Unknown motor
Mass
~1 kg wet, ~1 kg dry
Launch date (UTC)
2001-12-10 (24 years ago)
Launch vehicle
Unknown
Launch site
Tyuratam Missile And Space Complex (TTMTR)
Object type
Payload
Rocket body
Debris
Shape & HBR
Cone, 0.5 m
Radar Cross Section
0.635 m², Small (<0.1 m²)

Expand to show TLE details & history
Last TLE update: 1 day ago

TLE from 1 day ago
0 SL-16 DEB
1 28437U 01056L   25260.08517235  .00000032  00000-0  13904-3 0  9997
2 28437  99.4655 188.7376 0201971 151.5767 228.0417 13.27576374151035
Epoch: 2025-09-17T02:02Z
TLE epoch observation values (Epoch: 2025-09-17T02:02:38.891Z)
Latitude
17.66508°
Longitude
158.781°
Altitude
1,261.536 km
Speed
7.176 km/s
True Right ascension
12h 22m 50s
True Declination
17° 34' 21"
Sunlit
Object was in daylight at epoch
Visualization orbit readout
Latitude
Unknown
Longitude
Unknown
Altitude
Unknown
Speed
Unknown
Apparent Right ascension
Unknown
Apparent Declination
Unknown
Sunlit
N/A
Visualization observer readout
Local Sidereal Time
18:27:36
Azimuth
Unknown
Elevation
Unknown
Doppler factor
Unknown
Orbital elements
Apogee altitude
1,305.349 km
Perigee altitude
1,001.125 km
Semi-major axis
7,531.374 km
Eccentricity
0.0202
Inclination
99.4655°
RAAN
188.7376°
Arg. of periapsis
151.5767°
True anomaly
226.34946°
Mean anomaly
228.0417°
Eccentric anomaly
227.19272°
Mean motion
3.32072 °/min
Orbital period
108.41 mins
BSTAR
0.00013904
Loading maneuver chart data...
Computing Atmospheric mass density...
Loading historical data...
Loading historical data...
Loading historical data...
Loading historical data...
Loading historical data...
Loading historical data...
Loading historical data...

Documentation

Showing up to 5 results
|